IRIDIUM 52 [+]

Last updated on Tue Oct 16 2018 00:08:20 GMT+0000 (Coordinated Universal Time)

1 25169U 98010A 18288.69611918 .00000093 00000-0 23752-4 0 9994 2 25169 86.4217 147.5002 0002286 79.3593 280.7863 14.38615067 81370
UTC large
Height (km)
Speed (km/s)
/
Latitude / Longitude
Inclination (degrees)
Orbital Period (minutes)
Azimuth
Elevation
Range (km)
Doppler Factor

Next 0 passes for location: London (51.5072 / 0.1276)

Sorry there are no passes over London.
IRIDIUM 52 [+]